Tracking 18816 objects as of 18-October-2017
HD Live streaming from Space Station
objects crossing your sky now

NAVSTAR 30 (USA 88)

Track NAVSTAR 30 (USA 88) now!
NAVSTAR 30 (USA 88) is classified as:


NORAD ID: 22446
Int'l Code: 1993-007A
Perigee: 21,288.9 km
Apogee: 21,412.6 km
Inclination: 55.5 °
Period: 765.6 minutes
Semi major axis: 27721 km
RCS: 2.5118 m2 (large)
Launch date: February 3, 1993
Source: United States (US)
Launch site: AIR FORCE EASTERN TEST RANGE (AFETR)
PRN:
aabbcc
Your satellite tracking list
Your tracking list is empty





NASA's NSSDC Master Catalog

Two Line Element Set (TLE):
1 22446U 93007A   17291.43926304 -.00000092 +00000-0 +00000-0 0  9990
2 22446 055.4569 355.5176 0022314 334.1245 131.4255 01.88092447174488
Source of the keplerian elements: AFSPC